Weather reports worldwide

Advertisment
Ponza, Italy (16280): temperature & dewpoint: 13.07.2018 13:00:00 - 19.07.2018 13:00:00 (CEST)Ponza, Italy (16280): wind speed: 13.07.2018 13:00:00 - 19.07.2018 13:00:00 (CEST)Ponza, Italy (16280): wind direction: 13.07.2018 13:00:00 - 19.07.2018 13:00:00 (CEST)Ponza, Italy (16280): reduced air pressure: 13.07.2018 13:00:00 - 19.07.2018 13:00:00 (CEST)Ponza, Italy (16280): visibility: 13.07.2018 13:00:00 - 19.07.2018 13:00:00 (CEST)Ponza, Italy (16280): sunshine duration: 13.07.2018 13:00:00 - 19.07.2018 13:00:00 (CEST)
Date & Time tt [°C] td [°C] ff [km/h] ff [kn] dd ppp [hPa] vv [km] sd [min]
19.07.2018 13:00:00 29,4 26,8 4 2 W 1013,2 10 60
19.07.2018 12:00:00 29,2 25,6 4 2 N 1013,0 10 60
19.07.2018 11:00:00 27,4 24,1 5 3 N 1013,0 7 60
19.07.2018 10:00:00 - - - - - - - -
19.07.2018 09:00:00 25,0 24,1 11 6 N 1013,1 7 60
19.07.2018 08:00:00 24,6 23,6 11 6 N 1012,0 10 36
19.07.2018 07:00:00 - - - - - - - -
19.07.2018 06:00:00 - - - - - - - -
19.07.2018 05:00:00 23,8 23,6 15 8 W 1013,2 20 -
19.07.2018 04:00:00 23,8 23,5 15 8 W 1013,2 20 -
19.07.2018 03:00:00 24,0 23,5 13 7 W 1013,3 25 -
19.07.2018 02:00:00 24,4 22,7 13 7 NW 1013,3 20 -
19.07.2018 01:00:00 24,4 22,7 13 7 NW 1013,4 15 -
19.07.2018 00:00:00 24,2 23,7 9 5 NW 1013,1 20 -
18.07.2018 23:00:00 24,2 23,5 8 4 NW 1013,4 20 -
18.07.2018 22:00:00 24,8 24,0 9 5 NW 1013,2 10 -
18.07.2018 21:00:00 24,6 23,9 13 7 WNW 1013,2 15 -
18.07.2018 20:00:00 25,4 24,0 13 7 WNW 1013,2 20 60
18.07.2018 19:00:00 26,4 25,0 15 8 WNW 1013,4 20 60
18.07.2018 18:00:00 27,8 24,0 11 6 WNW 1013,7 15 60
18.07.2018 17:00:00 28,0 24,0 11 6 W 1013,6 20 60
18.07.2018 16:00:00 28,0 24,7 13 7 WSW 1014,0 15 60
18.07.2018 15:00:00 27,8 26,0 11 6 WSW 1013,9 15 60
18.07.2018 14:00:00 27,6 25,4 8 4 SW 1013,9 15 60
18.07.2018 13:00:00 26,0 24,8 4 2 WSW 1014,0 10 24
18.07.2018 12:00:00 26,0 25,0 4 2 W 1013,9 8 12
18.07.2018 11:00:00 27,6 25,4 4 2 SSW 1013,4 8 60
18.07.2018 10:00:00 27,0 24,8 8 4 NE 1013,1 8 60
18.07.2018 09:00:00 25,8 24,0 4 2 W 1013,1 8 60
18.07.2018 08:00:00 24,8 24,0 5 3 ENE 1012,4 8 18
18.07.2018 07:00:00 23,8 23,1 5 3 NE 1012,2 10 -
18.07.2018 06:00:00 23,2 22,7 5 3 N 1011,9 10 -
18.07.2018 05:00:00 23,4 22,9 21 11 NNW 1011,4 20 -
18.07.2018 04:00:00 23,6 22,8 28 15 N 1011,9 20 -
18.07.2018 03:00:00 23,8 22,8 26 14 NW 1011,7 20 -
18.07.2018 02:00:00 23,8 23,0 34 18 SSW 1011,7 20 -
18.07.2018 01:00:00 23,8 23,1 24 13 NW 1011,4 20 -
18.07.2018 00:00:00 23,8 23,0 31 17 WNW 1011,3 20 -
17.07.2018 23:00:00 24,0 23,7 39 21 WNW 1011,1 20 -
17.07.2018 22:00:00 24,0 23,5 41 22 WNW 1011,0 20 -
17.07.2018 21:00:00 24,4 23,7 39 21 WNW 1010,2 10 -
17.07.2018 20:00:00 24,6 23,4 37 20 WNW 1010,8 10 30
17.07.2018 19:00:00 25,0 23,8 35 19 WNW 1010,6 20 60
17.07.2018 18:00:00 25,2 23,4 37 20 WNW 1010,6 30 60
17.07.2018 17:00:00 25,4 22,9 34 18 WNW 1010,5 30 60
17.07.2018 16:00:00 25,0 22,9 29 16 WNW 1010,6 30 60
17.07.2018 15:00:00 25,4 22,9 28 15 WNW 1010,5 30 60
17.07.2018 14:00:00 25,0 22,7 31 17 WNW 1009,5 30 60
17.07.2018 13:00:00 24,2 23,0 35 19 WNW 1009,1 10 60
17.07.2018 12:00:00 23,8 22,4 31 17 WNW 1009,2 10 60
17.07.2018 11:00:00 25,0 23,1 16 9 WNW 1008,3 10 60
17.07.2018 10:00:00 24,2 22,1 9 5 NNW 1008,1 10 60
17.07.2018 09:00:00 23,0 21,3 16 9 WNW 1008,2 10 48
17.07.2018 08:00:00 22,6 21,4 15 8 W 1007,9 10 6
17.07.2018 07:00:00 23,0 21,3 26 14 WNW 1007,5 10 0
17.07.2018 06:00:00 22,6 20,9 28 15 WNW 1007,2 9 -
17.07.2018 05:00:00 22,6 21,4 15 8 SE 1007,3 9 -
17.07.2018 04:00:00 22,2 21,2 13 7 ENE 1008,1 10 -
17.07.2018 03:00:00 22,0 21,0 18 10 ENE 1009,1 10 -
17.07.2018 02:00:00 22,2 21,2 8 4 NE 1010,0 10 -
17.07.2018 01:00:00 21,6 20,9 8 4 E 1009,3 10 -
17.07.2018 00:00:00 23,6 22,9 13 7 WNW 1010,3 8 -
16.07.2018 23:00:00 26,0 22,3 16 9 S 1010,0 10 -
16.07.2018 22:00:00 25,8 24,4 22 12 ESE 1009,3 9 -
16.07.2018 21:00:00 26,0 24,4 24 13 ESE 1010,0 9 -
16.07.2018 20:00:00 26,0 24,4 15 8 SE 1011,1 9 0
16.07.2018 19:00:00 26,0 24,4 16 9 ESE 1011,1 9 0
16.07.2018 18:00:00 25,0 23,8 21 11 SE 1012,0 10 0
16.07.2018 17:00:00 25,0 24,1 15 8 SSE 1014,7 10 0
16.07.2018 16:00:00 27,8 26,0 4 2 NNW 1014,8 10 0
16.07.2018 15:00:00 27,6 26,4 16 9 N 1014,8 10 0
16.07.2018 14:00:00 28,0 26,6 8 4 W 1015,6 10 0
16.07.2018 13:00:00 28,8 25,6 4 2 SSE 1014,9 10 0
16.07.2018 12:00:00 29,0 26,2 11 6 E 1014,0 10 0
16.07.2018 11:00:00 28,0 25,8 11 6 E 1012,6 10 0
16.07.2018 10:00:00 27,0 24,8 8 4 NNE 1013,8 10 60
16.07.2018 09:00:00 26,0 24,2 4 2 N 1014,6 10 60
16.07.2018 08:00:00 25,0 24,1 9 5 W 1013,5 10 48
16.07.2018 07:00:00 24,6 23,9 8 4 WSW 1012,5 10 0
16.07.2018 06:00:00 24,4 23,9 8 4 W 1012,5 10 -
16.07.2018 05:00:00 - - - - - - - -
16.07.2018 04:00:00 - - - - - - - -
16.07.2018 03:00:00 23,6 23,1 11 6 W 1012,6 10 -
16.07.2018 02:00:00 23,4 22,9 5 3 W 1012,6 10 -
16.07.2018 01:00:00 23,8 23,3 11 6 WNW 1012,6 10 -
16.07.2018 00:00:00 23,8 23,5 11 6 WNW 1012,5 10 -
15.07.2018 23:00:00 24,2 23,7 13 7 WNW 1012,2 10 -
15.07.2018 22:00:00 24,8 24,3 11 6 W 1012,3 10 -
15.07.2018 21:00:00 24,8 24,5 15 8 WSW 1012,2 10 0
15.07.2018 20:00:00 26,0 25,5 15 8 WSW 1012,1 10 60
15.07.2018 19:00:00 27,4 25,6 15 8 WSW 1012,0 10 60
15.07.2018 18:00:00 28,6 26,2 13 7 W 1012,1 10 60
15.07.2018 17:00:00 28,6 26,6 13 7 WNW 1012,3 10 60
15.07.2018 16:00:00 29,0 27,2 9 5 WNW 1012,6 10 60
15.07.2018 15:00:00 29,2 27,8 9 5 WNW 1012,3 10 60
15.07.2018 14:00:00 29,0 27,2 11 6 WNW 1012,5 10 60
15.07.2018 13:00:00 29,8 27,4 11 6 NW 1012,8 10 60
15.07.2018 12:00:00 29,4 25,6 9 5 NW 1012,6 10 60
15.07.2018 11:00:00 28,0 25,2 5 3 W 1012,7 10 60
15.07.2018 10:00:00 27,2 24,7 8 4 WNW 1012,6 10 60
15.07.2018 09:00:00 27,2 25,4 5 3 WNW 1012,7 10 60
15.07.2018 08:00:00 26,0 24,8 4 2 W 1011,9 9 42
15.07.2018 07:00:00 25,0 24,0 5 3 SW 1011,8 9 0
15.07.2018 06:00:00 25,0 23,8 9 5 SSW 1011,8 10 -
15.07.2018 05:00:00 25,2 24,2 9 5 SSW 1012,1 10 -
15.07.2018 04:00:00 25,2 21,5 11 6 SSE 1012,2 10 -
15.07.2018 03:00:00 26,6 18,7 4 2 N 1012,7 10 -
15.07.2018 02:00:00 26,4 18,0 4 2 N 1013,1 15 -
15.07.2018 01:00:00 25,6 24,6 5 3 N 1013,0 10 -
15.07.2018 00:00:00 25,8 24,8 5 3 N 1013,3 10 -
14.07.2018 23:00:00 26,0 25,0 11 6 N 1013,2 10 -
14.07.2018 22:00:00 26,0 25,5 13 7 N 1013,1 8 -
14.07.2018 21:00:00 26,4 25,2 9 5 NW 1013,1 8 -
14.07.2018 20:00:00 28,2 26,4 11 6 W 1012,9 9 6
14.07.2018 19:00:00 28,6 26,4 8 4 SSW 1013,2 9 60
14.07.2018 18:00:00 30,6 28,0 4 2 NW 1013,6 10 60
14.07.2018 17:00:00 31,0 26,0 4 2 ESE 1013,8 4,0 60
14.07.2018 16:00:00 30,4 25,9 4 2 ENE 1014,6 9 60
14.07.2018 15:00:00 29,4 26,6 5 3 S 1014,9 9 60
14.07.2018 14:00:00 30,0 26,4 5 3 SSE 1015,3 9 60
14.07.2018 13:00:00 29,0 27,9 9 5 E 1015,3 8 60
14.07.2018 12:00:00 28,2 26,4 8 4 E 1015,9 8 60
14.07.2018 11:00:00 28,0 27,1 8 4 E 1016,0 8 60
14.07.2018 10:00:00 - - - - - - - -
14.07.2018 09:00:00 27,4 25,4 5 3 NE 1015,9 10 60
14.07.2018 08:00:00 25,4 23,5 4 2 NNE 1015,6 10 36
14.07.2018 07:00:00 - - - - - - - -
14.07.2018 06:00:00 24,2 23,7 9 5 N 1015,3 20 -
14.07.2018 05:00:00 24,8 24,0 8 4 NNW 1015,2 20 -
14.07.2018 04:00:00 24,8 23,6 8 4 NW 1015,5 40 -
14.07.2018 03:00:00 - - - - - - - -
14.07.2018 02:00:00 24,6 24,4 8 4 WNW 1016,3 30 -
14.07.2018 01:00:00 24,8 24,6 11 6 WNW 1016,2 30 -
14.07.2018 00:00:00 24,8 24,6 9 5 NW 1016,2 30 -
13.07.2018 23:00:00 25,0 24,8 13 7 NNW 1015,6 30 -
13.07.2018 22:00:00 25,2 24,3 11 6 NNW 1015,6 30 -
13.07.2018 21:00:00 25,4 25,2 8 4 NW 1015,5 10 0
13.07.2018 20:00:00 - - - - - - - -
13.07.2018 19:00:00 28,4 27,2 11 6 W 1015,4 15 60
13.07.2018 18:00:00 28,6 27,0 15 8 WSW 1015,4 10 60
13.07.2018 17:00:00 28,6 27,0 15 8 WSW 1015,7 10 60
13.07.2018 16:00:00 28,8 26,8 13 7 WSW 1015,9 10 60
13.07.2018 15:00:00 - - - - - - - -
13.07.2018 14:00:00 30,4 27,4 4 2 S 1016,5 10 60
13.07.2018 13:00:00 29,8 26,8 5 3 ENE 1016,7 10 60

tt = temperature
td = dewpoint
ff = wind speed
dd = wind direction
ppp = reduced air pressure
vv = visibility
sd = sunshine duration

Next stations